NOAA 2 (ITOS-D) (6235 NORAD) Tracking and Keplerian Element Data

This shows tracking and keplerian element data for the satellite.

Feedback or suggestion? Click here.




ElementValue
Catalog6235
NameNOAA 2 (ITOS-D)
Epoch Orbit39252
Epoch Day34.82857097
Epoch Year2025
RAAN42.5293
Inclination102.0242
Eccentricity0.0004137
Argument of Perigee43.3334
Mean Anonmoly11.8048
Mean Motion12.53195034
Decay Rate-3.1E-07
L11 06235U 72082A 25034.82857097 -.00000031 00000+0 10051-3 0 9999
L22 06235 102.0242 42.5293 0004137 43.3334 11.8048 12.53195034392525



Live tracking and technical data element details for NOAA 2 (ITOS-D) (NORAD 6235). NOAA 2 (ITOS-D) can be tracked NOW for your location showing map with azimuth and elevation plus other details from your city location.







IsCatalogInMostPopularTable: catalog: 6235, numindb: 554
Update: records affected: 1



GetName: 6235 NOAA 2 (ITOS-D)

Hit Count: updated at: Thu, 22 May 2025 03:05:23 GMT